N0JVW-13 Weather Reports


Display with metric or nautical units.
time (UTC)temp
F
wind
direction
speed
MPH
gust
MPH
rain 1hr
in
rain 24hr
in
rain mn
in
humidity
%
barometer
mb
20260903174556 92 163 1.0 4.0 0.00 0.00 0.00 52 1011.0
20260903174036 92 154 1.0 4.0 0.00 0.00 0.00 52 1011.0
20260903173532 91 176 1.0 5.0 0.00 0.00 0.00 52 1011.0
20260903173059 91 169 1.0 5.0 0.00 0.00 0.00 52 1011.1
20260903172535 91 161 1.0 5.0 0.00 0.00 0.00 53 1011.2
20260903172014 91 156 1.0 4.0 0.00 0.00 0.00 54 1011.2
20260903171611 91 166 0.0 4.0 0.00 0.00 0.00 57 1011.2
20260903171037 91 174 1.0 4.0 0.00 0.00 0.00 55 1011.3
20260903170517 90 153 1.0 3.0 0.00 0.00 0.00 55 1011.3
20260903165541 90 149 0.0 4.0 0.00 0.00 0.00 56 1011.4
20260903165018 90 157 1.0 4.0 0.00 0.00 0.00 57 1011.4
20260903164602 89 120 0.0 3.0 0.00 0.00 0.00 58 1011.5
20260903164042 89 158 0.0 3.0 0.00 0.00 0.00 58 1011.5
20260903163522 89 196 0.0 3.0 0.00 0.00 0.00 58 1011.5
20260903163002 89 153 0.0 3.0 0.00 0.00 0.00 59 1011.7
20260903162544 89 139 0.0 3.0 0.00 0.00 0.00 59 1011.6
20260903162024 88 164 0.0 3.0 0.00 0.00 0.00 60 1011.6
20260903161502 88 179 0.0 3.0 0.00 0.00 0.00 62 1011.7
20260903161045 88 156 1.0 3.0 0.00 0.00 0.00 62 1011.7
20260903160525 87 170 0.0 3.0 0.00 0.00 0.00 62 1011.7
20260903160005 87 180 0.0 4.0 0.00 0.00 0.00 61 1011.8
20260903155548 87 136 0.0 4.0 0.00 0.00 0.00 62 1011.8
20260903155035 87 137 0.0 4.0 0.00 0.00 0.00 63 1011.7
20260903154508 86 134 0.0 4.0 0.00 0.00 0.00 64 1011.7
20260903154052 86 135 0.0 1.0 0.00 0.00 0.00 66 1011.7
20260903153530 86 136 0.0 2.0 0.00 0.00 0.00 65 1011.7
20260903153009 86 157 0.0 2.0 0.00 0.00 0.00 65 1011.7
20260903152553 85 162 0.0 3.0 0.00 0.00 0.00 66 1011.7
20260903152032 85 166 1.0 3.0 0.00 0.00 0.00 67 1011.8
20260903151512 84 121 0.0 1.0 0.00 0.00 0.00 68 1011.8
20260903151055 84 113 0.0 1.0 0.00 0.00 0.00 68 1011.8
20260903150535 84 165 0.0 1.0 0.00 0.00 0.00 69 1011.8
20260903150020 83 133 0.0 2.0 0.00 0.00 0.00 69 1011.8
20260903145601 83 162 0.0 3.0 0.00 0.00 0.00 69 1011.9
20260903145038 83 160 0.0 4.0 0.00 0.00 0.00 69 1011.9
20260903144518 83 196 1.0 4.0 0.00 0.00 0.00 70 1011.8
20260903144106 82 153 1.0 4.0 0.00 0.00 0.00 70 1011.9
20260903143541 82 159 1.0 4.0 0.00 0.00 0.00 70 1011.9
20260903143032 82 159 0.0 2.0 0.00 0.00 0.00 71 1012.0
20260903142605 81 155 0.0 4.0 0.00 0.00 0.00 71 1012.0
20260903142043 81 157 0.0 4.0 0.00 0.00 0.00 71 1012.0
20260903141523 81 146 0.0 4.0 0.00 0.00 0.00 70 1012.1
20260903141005 80 127 1.0 4.0 0.00 0.00 0.00 71 1012.1
20260903140546 80 171 0.0 4.0 0.00 0.00 0.00 70 1012.1
20260903140025 80 164 0.0 4.0 0.00 0.00 0.00 70 1012.2
20260903135509 79 154 1.0 4.0 0.00 0.00 0.00 69 1012.2
20260903135049 79 124 0.0 0.0 0.00 0.00 0.00 68 1012.2
20260903134527 78 162 0.0 0.0 0.00 0.00 0.00 68 1012.1
20260903134006 78 137 0.0 0.0 0.00 0.00 0.00 68 1012.1
20260903133550 78 162 0.0 0.0 0.00 0.00 0.00 68 1012.1
20260903133030 77 153 0.0 0.0 0.00 0.00 0.00 66 1012.1
20260903132509 77 162 0.0 1.0 0.00 0.00 0.00 66 1012.1
20260903132052 77 162 0.0 1.0 0.00 0.00 0.00 65 1012.1
20260903131528 76 131 0.0 1.0 0.00 0.00 0.00 63 1012.1
20260903131008 76 119 0.0 1.0 0.00 0.00 0.00 62 1012.0
20260903130551 76 119 0.0 1.0 0.00 0.00 0.00 62 1012.0
20260903130030 76 146 0.0 0.0 0.00 0.00 0.00 61 1011.9
20260903125510 75 146 0.0 0.0 0.00 0.00 0.00 61 1011.9
20260903125053 75 146 0.0 0.0 0.00 0.00 0.00 61 1011.9
20260903124532 75 146 0.0 0.0 0.00 0.00 0.00 60 1011.8
20260903124014 75 148 0.0 1.0 0.00 0.00 0.00 60 1011.8
20260903123601 75 148 0.0 1.0 0.00 0.00 0.00 60 1011.8
20260903123036 75 150 0.0 1.0 0.00 0.00 0.00 62 1011.8
20260903122515 75 146 0.0 0.0 0.00 0.00 0.00 62 1011.8
20260903122056 74 156 0.0 0.0 0.00 0.00 0.00 61 1011.7
20260903121535 74 156 0.0 0.0 0.00 0.00 0.00 63 1011.7
20260903121015 74 156 0.0 1.0 0.00 0.00 0.00 63 1011.6
20260903120601 74 122 0.0 1.0 0.00 0.00 0.00 63 1011.5
20260903120046 74 157 0.0 0.0 0.00 0.00 0.00 63 1011.5
20260903115520 74 156 0.0 0.0 0.00 0.00 0.00 63 1011.5
20260903115101 75 156 0.0 1.0 0.00 0.00 0.00 63 1011.4
20260903114540 75 156 0.0 1.0 0.00 0.00 0.00 63 1011.4
20260903114019 75 144 0.0 0.0 0.00 0.00 0.00 65 1011.2
20260903113605 75 152 0.0 0.0 0.00 0.00 0.00 67 1011.2
20260903113147 75 151 0.0 0.0 0.00 0.00 0.00 68 1011.2
20260903112530 75 151 0.0 0.0 0.00 0.00 0.00 68 1011.2
20260903112008 75 151 0.0 0.0 0.00 0.00 0.00 69 1011.2
20260903111552 75 152 0.0 0.0 0.00 0.00 0.00 69 1011.1
20260903111034 76 152 0.0 0.0 0.00 0.00 0.00 69 1011.1
20260903110508 76 152 0.0 0.0 0.00 0.00 0.00 69 1011.1
20260903110051 76 152 0.0 0.0 0.00 0.00 0.00 69 1011.1
20260903105530 76 151 0.0 0.0 0.00 0.00 0.00 70 1011.1
20260903105010 76 152 0.0 0.0 0.00 0.00 0.00 70 1011.1
20260903104554 76 136 0.0 0.0 0.00 0.00 0.00 70 1011.0
20260903104035 76 136 0.0 0.0 0.00 0.00 0.00 71 1011.0
20260903103513 76 136 0.0 0.0 0.00 0.00 0.00 71 1010.8
20260903103057 76 136 0.0 0.0 0.00 0.00 0.00 71 1010.8
20260903102537 76 136 0.0 0.0 0.00 0.00 0.00 71 1010.8
20260903102020 76 123 0.0 0.0 0.00 0.00 0.00 71 1010.7
20260903101602 77 123 0.0 0.0 0.00 0.00 0.00 71 1010.7
20260903101037 77 141 0.0 0.0 0.00 0.00 0.00 71 1010.7
20260903100518 77 136 0.0 0.0 0.00 0.00 0.00 71 1010.7
20260903095539 77 155 0.0 0.0 0.00 0.00 0.00 72 1010.7
20260903095019 77 147 0.0 0.0 0.00 0.00 0.00 72 1010.7
20260903094652 77 143 0.0 0.0 0.00 0.00 0.00 72 1010.7
20260903094042 77 135 0.0 0.0 0.00 0.00 0.00 72 1010.8
20260903093522 77 134 0.0 0.0 0.00 0.00 0.00 72 1010.8
20260903093001 77 134 0.0 0.0 0.00 0.00 0.00 72 1010.7
20260903092547 77 134 0.0 0.0 0.00 0.00 0.00 72 1010.7
20260903092025 77 131 0.0 0.0 0.00 0.00 0.00 72 1010.7
20260903091505 77 134 0.0 0.0 0.00 0.00 0.00 72 1010.7
20260903091047 77 134 0.0 0.0 0.00 0.00 0.00 72 1010.7
20260903090531 77 134 0.0 0.0 0.00 0.00 0.00 72 1010.7
20260903090007 77 134 0.0 0.0 0.00 0.00 0.00 72 1010.8
20260903085549 77 134 0.0 0.0 0.00 0.00 0.00 72 1010.7
20260903085029 77 134 0.0 0.0 0.00 0.00 0.00 72 1010.7
20260903084523 77 134 0.0 0.0 0.00 0.00 0.00 71 1010.6
20260903084052 77 134 0.0 0.0 0.00 0.00 0.00 71 1010.6
20260903083532 78 134 0.0 0.0 0.00 0.00 0.00 71 1010.7
20260903083019 78 134 0.0 0.0 0.00 0.00 0.00 71 1010.7
20260903082554 78 134 0.0 0.0 0.00 0.00 0.00 71 1010.6
20260903082034 78 134 0.0 0.0 0.00 0.00 0.00 71 1010.6
20260903081514 78 134 0.0 0.0 0.00 0.00 0.00 71 1010.6
20260903081057 78 134 0.0 0.0 0.00 0.00 0.00 71 1010.5
20260903080537 78 134 0.0 0.0 0.00 0.00 0.00 70 1010.6
20260903080035 79 148 0.0 0.0 0.00 0.00 0.00 70 1010.6
20260903075602 79 148 0.0 0.0 0.00 0.00 0.00 70 1010.5
20260903075039 79 148 0.0 0.0 0.00 0.00 0.00 69 1010.5
20260903074519 79 148 0.0 0.0 0.00 0.00 0.00 69 1010.5
20260903074106 79 148 0.0 0.0 0.00 0.00 0.00 68 1010.5
20260903073545 79 148 0.0 0.0 0.00 0.00 0.00 68 1010.5
20260903073024 80 153 0.0 0.0 0.00 0.00 0.00 68 1010.5
20260903072501 80 153 0.0 0.0 0.00 0.00 0.00 67 1010.5
20260903072046 80 153 0.0 0.0 0.00 0.00 0.00 67 1010.5
20260903071525 80 153 0.0 0.0 0.00 0.00 0.00 67 1010.5
20260903071007 80 153 0.0 0.0 0.00 0.00 0.00 67 1010.6
20260903070550 80 153 0.0 0.0 0.00 0.00 0.00 66 1010.5
20260903070026 81 153 0.0 0.0 0.00 0.00 0.00 66 1010.6
20260903065506 81 153 0.0 0.0 0.00 0.00 0.00 65 1010.7
20260903065049 81 153 0.0 0.0 0.00 0.00 0.00 65 1010.6
20260903064529 81 153 0.0 0.0 0.00 0.00 0.00 65 1010.6
20260903064008 81 153 0.0 0.0 0.00 0.00 0.00 65 1010.5
20260903063551 81 153 0.0 0.0 0.00 0.00 0.00 65 1010.5
20260903063031 81 153 0.0 0.0 0.00 0.00 0.00 64 1010.5
20260903062511 81 153 0.0 0.0 0.00 0.00 0.00 64 1010.6
20260903062055 81 153 0.0 0.0 0.00 0.00 0.00 64 1010.5
20260903061533 81 153 0.0 0.0 0.00 0.00 0.00 64 1010.5
20260903061016 81 153 0.0 0.0 0.00 0.00 0.00 64 1010.5
20260903060556 81 153 0.0 0.0 0.00 0.00 0.00 64 1010.5
20260903060037 82 153 0.0 0.0 0.00 0.00 0.00 64 1010.5
20260903055517 82 153 0.0 0.0 0.00 0.00 0.00 64 1010.5
20260903055056 82 153 0.0 0.0 0.00 0.00 0.00 64 1010.5
20260903054536 82 153 0.0 0.0 0.00 0.00 0.00 64 1010.5
20260903054015 82 153 0.0 0.0 0.00 0.00 0.00 64 1010.5
20260903053602 82 153 0.0 0.0 0.00 0.00 0.00 64 1010.5
20260903053040 82 153 0.0 0.0 0.00 0.00 0.00 63 1010.5
20260903052518 82 153 0.0 0.0 0.00 0.00 0.00 63 1010.5
20260903052101 82 153 0.0 0.0 0.00 0.00 0.00 63 1010.5
20260903051546 82 153 0.0 0.0 0.00 0.00 0.00 63 1010.5
20260903051020 82 153 0.0 0.0 0.00 0.00 0.00 63 1010.5
20260903050603 82 153 0.0 0.0 0.00 0.00 0.00 63 1010.5
20260903050043 82 153 0.0 0.0 0.00 0.00 0.00 63 1010.5
20260903045524 83 153 0.0 0.0 0.00 0.00 0.00 63 1010.5
20260903045003 83 153 0.0 0.0 0.00 0.00 0.00 62 1010.5
20260903044547 83 153 0.0 0.0 0.00 0.00 0.00 62 1010.4
20260903044026 83 153 0.0 0.0 0.00 0.00 0.00 62 1010.5
20260903043506 83 153 0.0 0.0 0.00 0.00 0.00 62 1010.5
20260903043048 83 153 0.0 0.0 0.00 0.00 0.00 62 1010.5
20260903042533 83 153 0.0 0.0 0.00 0.00 0.00 62 1010.5
20260903042009 83 153 0.0 0.0 0.00 0.00 0.00 62 1010.4
20260903041607 83 153 0.0 0.0 0.00 0.00 0.00 61 1010.5
20260903041033 83 153 0.0 0.0 0.00 0.00 0.00 61 1010.5
20260903040510 83 153 0.0 0.0 0.00 0.00 0.00 61 1010.6
20260903040108 84 153 0.0 0.0 0.00 0.00 0.00 61 1010.7
20260903035537 84 153 0.0 0.0 0.00 0.00 0.00 61 1010.6
20260903035012 84 153 0.0 0.0 0.00 0.00 0.00 60 1010.6
20260903034559 84 153 0.0 0.0 0.00 0.00 0.00 60 1010.6
20260903034036 84 153 0.0 0.0 0.00 0.00 0.00 60 1010.6
20260903033514 84 153 0.0 0.0 0.00 0.00 0.00 60 1010.6
20260903033058 84 153 0.0 0.0 0.00 0.00 0.00 60 1010.6
20260903032537 84 153 0.0 0.0 0.00 0.00 0.00 59 1010.6
20260903032017 85 153 0.0 0.0 0.00 0.00 0.00 59 1010.6
20260903031602 85 153 0.0 0.0 0.00 0.00 0.00 59 1010.5
20260903031043 85 153 0.0 0.0 0.00 0.00 0.00 59 1010.5
20260903030520 85 153 0.0 0.0 0.00 0.00 0.00 59 1010.6
20260903030106 85 153 0.0 0.0 0.00 0.00 0.00 59 1010.6
20260903025543 85 153 0.0 0.0 0.00 0.00 0.00 59 1010.6
20260903025021 85 153 0.0 0.0 0.00 0.00 0.00 58 1010.5
20260903024502 85 153 0.0 0.0 0.00 0.00 0.00 58 1010.6
20260903024044 85 153 0.0 0.0 0.00 0.00 0.00 58 1010.5
20260903023524 85 153 0.0 0.0 0.00 0.00 0.00 57 1010.4
20260903023006 85 153 0.0 0.0 0.00 0.00 0.00 57 1010.5
20260903022550 86 153 0.0 0.0 0.00 0.00 0.00 58 1010.5
20260903022026 86 153 0.0 0.0 0.00 0.00 0.00 57 1010.4
20260903021507 86 153 0.0 0.0 0.00 0.00 0.00 57 1010.3
20260903021051 86 153 0.0 0.0 0.00 0.00 0.00 57 1010.3
20260903020530 86 153 0.0 0.0 0.00 0.00 0.00 56 1010.3
20260903020010 86 153 0.0 0.0 0.00 0.00 0.00 56 1010.2
20260903015555 87 153 0.0 0.0 0.00 0.00 0.00 56 1010.1
20260903015034 87 153 0.0 0.0 0.00 0.00 0.00 56 1010.0
20260903014512 87 153 0.0 0.0 0.00 0.00 0.00 56 1009.9
20260903014056 87 153 0.0 0.0 0.00 0.00 0.00 56 1009.8
20260903013536 87 153 0.0 0.0 0.00 0.00 0.00 57 1009.8
20260903013015 87 153 0.0 0.0 0.00 0.00 0.00 56 1009.8
20260903012559 87 153 0.0 0.0 0.00 0.00 0.00 56 1009.7
20260903012038 88 153 0.0 0.0 0.00 0.00 0.00 56 1009.7
20260903011518 88 153 0.0 0.0 0.00 0.00 0.00 55 1009.6
20260903011103 88 153 0.0 0.0 0.00 0.00 0.00 55 1009.6
20260903010540 89 153 0.0 0.0 0.00 0.00 0.00 54 1009.6
20260903010019 89 153 0.0 0.0 0.00 0.00 0.00 53 1009.6
20260903005605 90 153 0.0 0.0 0.00 0.00 0.00 53 1009.6
20260903005045 90 153 0.0 0.0 0.00 0.00 0.00 53 1009.5
20260903004521 90 153 0.0 0.0 0.00 0.00 0.00 52 1009.6
20260903004005 90 153 0.0 0.0 0.00 0.00 0.00 52 1009.5
20260903003544 91 153 0.0 0.0 0.00 0.00 0.00 52 1009.5
20260903003026 91 153 0.0 0.0 0.00 0.00 0.00 51 1009.5
20260903002502 91 153 0.0 0.0 0.00 0.00 0.00 51 1009.6
20260903002045 91 153 0.0 0.0 0.00 0.00 0.00 50 1009.6
20260903001540 92 153 0.0 0.0 0.00 0.00 0.00 50 1009.6
20260903001004 92 153 0.0 0.0 0.00 0.00 0.00 50 1009.7
20260903000547 92 153 0.0 0.0 0.00 0.00 0.00 49 1009.6
20260903000027 92 153 0.0 0.0 0.00 0.00 0.00 49 1009.6
20260902235507 93 153 0.0 1.0 0.00 0.00 0.00 49 1009.6
20260902235049 93 156 0.0 1.0 0.00 0.00 0.00 49 1009.7
20260902234532 93 120 0.0 1.0 0.00 0.00 0.00 48 1009.6
20260902234009 93 154 0.0 1.0 0.00 0.00 0.00 48 1009.7
20260902233554 93 154 0.0 0.0 0.00 0.00 0.00 48 1009.7
20260902233029 93 154 0.0 0.0 0.00 0.00 0.00 47 1009.7
20260902232508 94 154 0.0 0.0 0.00 0.00 0.00 47 1009.7
20260902232052 94 154 0.0 1.0 0.00 0.00 0.00 47 1009.7
20260902231532 94 154 0.0 1.0 0.00 0.00 0.00 46 1009.7
20260902231011 94 131 0.0 2.0 0.00 0.00 0.00 45 1009.7
20260902230558 94 131 0.0 2.0 0.00 0.00 0.00 45 1009.7
20260902230035 94 110 0.0 3.0 0.00 0.00 0.00 45 1009.7
20260902225514 94 143 0.0 3.0 0.00 0.00 0.00 45 1009.8
20260902225058 94 163 0.0 0.0 0.00 0.00 0.00 45 1009.8
20260902224545 94 153 0.0 2.0 0.00 0.00 0.00 46 1009.8
20260902224017 94 127 0.0 2.0 0.00 0.00 0.00 46 1009.7
20260902223601 94 176 0.0 2.0 0.00 0.00 0.00 44 1009.8
20260902223040 95 148 0.0 3.0 0.00 0.00 0.00 44 1009.8
20260902222521 95 160 1.0 3.0 0.00 0.00 0.00 44 1009.8
20260902222101 95 150 0.0 3.0 0.00 0.00 0.00 45 1009.7
20260902221547 95 166 0.0 4.0 0.00 0.00 0.00 44 1009.7
20260902221020 95 158 0.0 1.0 0.00 0.00 0.00 45 1009.7
20260902220604 95 97 0.0 1.0 0.00 0.00 0.00 44 1009.7
20260902220052 95 97 0.0 2.0 0.00 0.00 0.00 44 1009.8
20260902215524 95 167 0.0 2.0 0.00 0.00 0.00 44 1009.9
20260902215003 95 160 0.0 3.0 0.00 0.00 0.00 43 1009.9
20260902214545 96 114 0.0 4.0 0.00 0.00 0.00 42 1009.9
20260902214025 96 170 1.0 4.0 0.00 0.00 0.00 43 1009.9
20260902213504 96 130 1.0 4.0 0.00 0.00 0.00 42 1010.0
20260902213050 96 160 1.0 4.0 0.00 0.00 0.00 43 1010.0
20260902212527 96 119 0.0 3.0 0.00 0.00 0.00 44 1010.0
20260902212005 96 133 0.0 3.0 0.00 0.00 0.00 42 1010.2
20260902211550 96 134 0.0 3.0 0.00 0.00 0.00 43 1010.3
20260902211029 96 133 0.0 5.0 0.00 0.00 0.00 43 1010.3
20260902210508 96 160 0.0 5.0 0.00 0.00 0.00 44 1010.4
20260902210107 96 165 1.0 3.0 0.00 0.00 0.00 44 1010.3
20260902205531 95 143 0.0 2.0 0.00 0.00 0.00 45 1010.5
20260902205011 95 198 0.0 1.0 0.00 0.00 0.00 46 1010.6
20260902204553 95 163 0.0 1.0 0.00 0.00 0.00 45 1010.7
20260902204033 95 162 0.0 4.0 0.00 0.00 0.00 44 1010.7
20260902203512 96 165 0.0 4.0 0.00 0.00 0.00 44 1010.8
20260902203100 96 127 0.0 3.0 0.00 0.00 0.00 44 1010.8
20260902202536 96 138 0.0 5.0 0.00 0.00 0.00 44 1010.8
20260902202017 95 169 2.0 5.0 0.00 0.00 0.00 45 1010.8
20260902201605 95 150 0.0 3.0 0.00 0.00 0.00 45 1010.8
20260902201041 95 150 0.0 2.0 0.00 0.00 0.00 44 1010.9
20260902200520 96 139 0.0 2.0 0.00 0.00 0.00 43 1010.9
20260902200111 96 139 0.0 4.0 0.00 0.00 0.00 42 1010.9
20260902195541 97 152 1.0 5.0 0.00 0.00 0.00 42 1011.1
20260902195019 97 152 0.0 5.0 0.00 0.00 0.00 43 1011.1
20260902194603 97 124 0.0 2.0 0.00 0.00 0.00 44 1011.1
20260902194045 97 117 0.0 3.0 0.00 0.00 0.00 44 1011.3
20260902193522 97 118 0.0 3.0 0.00 0.00 0.00 44 1011.2
20260902193002 97 134 0.0 5.0 0.00 0.00 0.00 44 1011.4
20260902192545 96 205 2.0 5.0 0.00 0.00 0.00 44 1011.4
20260902192024 96 163 0.0 4.0 0.00 0.00 0.00 44 1011.5
20260902191504 96 156 0.0 4.0 0.00 0.00 0.00 44 1011.6
20260902191048 96 135 1.0 4.0 0.00 0.00 0.00 44 1011.6
20260902190528 96 124 0.0 4.0 0.00 0.00 0.00 46 1011.8
20260902190009 96 160 1.0 3.0 0.00 0.00 0.00 46 1011.8
20260902185549 96 161 0.0 4.0 0.00 0.00 0.00 46 1011.8
20260902185033 96 148 0.0 4.0 0.00 0.00 0.00 46 1011.9
20260902184510 95 150 2.0 4.0 0.00 0.00 0.00 46 1011.9
20260902184052 95 134 1.0 4.0 0.00 0.00 0.00 46 1012.0
20260902183532 95 229 0.0 3.0 0.00 0.00 0.00 48 1012.2
20260902183013 95 172 0.0 3.0 0.00 0.00 0.00 48 1012.3
20260902182554 95 214 0.0 3.0 0.00 0.00 0.00 46 1012.3
20260902182037 95 161 0.0 3.0 0.00 0.00 0.00 49 1012.4
20260902181513 95 101 0.0 1.0 0.00 0.00 0.00 49 1012.3
20260902181057 94 101 0.0 1.0 0.00 0.00 0.00 51 1012.3
20260902180537 94 101 0.0 2.0 0.00 0.00 0.00 50 1012.5
20260902180025 94 101 0.0 3.0 0.00 0.00 0.00 49 1012.5
20260902175602 93 101 0.0 3.0 0.00 0.00 0.00 50 1012.6
20260902175040 93 207 0.0 2.0 0.00 0.00 0.00 50 1012.8